Location: Fennell Observatory
(35.2597°N, 89.5125°W)
Time: 10:20:58
(UTC-05:00)

Daily predictions for brighter satellites

Satellite Brightness Start Highest point End
(mag) Time Altitude Azimuth Time Altitude Azimuth Time Altitude Azimuth
GP-B 3.1 18:29:22 10° N 18:33:47 65° E 18:38:10 10° S
Cosmos 2360 Rocket 2.3 18:28:06 10° NNW 18:33:47 88° ENE 18:39:27 10° SSE
CSL-04 Rocket 4.1 18:29:14 10° S 18:34:34 71° WSW 18:39:52 10° NNW
RESURS DK-1 2.6 18:30:43 10° NNW 18:34:51 78° WSW 18:38:57 10° SSE
Atlas Centaur 2 3.2 18:32:15 10° WSW 18:35:41 27° SSW 18:39:41 10° SE
Cosmos 1727 Rocket 4.0 18:29:19 10° N 18:35:41 76° E 18:41:59 10° S
CSL-04 Debris 4.5 18:30:36 10° S 18:36:04 78° WSW 18:41:35 10° NNW
Gbstr 26 Del rocket 4.3 18:32:33 10° NNW 18:37:02 34° NE 18:42:29 10° E
Cosmos 1048 Rocket 4.0 18:32:20 10° S 18:37:23 65° ESE 18:42:28 10° NNE
ALOS 3.5 18:35:26 10° ESE 18:38:56 21° ENE 18:42:25 10° NNE
Aureole 2 4.4 18:38:11 10° NNW 18:41:29 68° ENE 18:45:17 10° SSE
CORIOLIS 4.2 18:37:26 10° SSE 18:42:49 87° ENE 18:48:15 10° NNW
Abrixas 4.4 18:44:09 10° WNW 18:45:18 13° NNW 18:46:27 10° N
Cosmos 1500 Rocket 3.6 18:41:16 10° N 18:45:36 85° W 18:49:53 10° S
Cosmos 1420 Rocket 4.0 18:41:51 10° NNW 18:47:09 68° ENE 18:52:22 10° SSE
Cosmos 1400 Rocket 3.9 18:44:25 10° NNW 18:48:17 50° W 18:52:05 10° S
Cosmos 2219 3.2 18:44:48 10° SSW 18:50:32 78° ESE 18:56:17 10° NNE
COSMOS 2428 2.8 18:45:51 10° NNW 18:51:26 53° ENE 18:56:57 10° SE
ERS-2 2.2 18:48:01 10° SSE 18:51:42 86° WSW 18:55:25 10° NNW
OAO 1 Rocket 4.5 18:47:14 10° W 18:52:34 89° S 18:57:30 12° E
Cosmos 2333 Rocket 3.1 18:49:04 10° N 18:54:01 29° ENE 18:58:56 10° ESE
Cosmos 2297 Rocket 3.3 18:51:17 10° SSE 18:55:34 22° E 18:59:50 10° NE
Cosmos 1726 2.4 18:53:00 10° SSE 18:56:31 45° E 19:00:03 10° NNE
Hubble Space Telescope 2.4 18:53:53 10° SW 18:57:14 24° SSE 19:00:30 10° ESE
DELTA 2 R/B (1) 3.8 18:52:40 10° WNW 18:58:14 73° SSW 19:03:47 10° ESE
Cosmos 2058 4.1 19:00:00 10° NNW 19:03:59 46° W 19:07:55 10° SSW
MOS 1 4.2 18:59:01 10° SSE 19:04:39 73° ENE 19:10:20 10° N
NOAA 12 4.4 18:59:48 10° SE 19:04:49 45° ENE 19:09:52 10° N
Sich 1 3.8 19:02:33 10° NNE 19:06:27 30° ENE 19:10:21 10° SE
Cosmos 2151 4.4 19:04:12 10° NNW 19:08:13 41° W 19:12:10 10° SSW
MONITOR-E 4.0 19:05:40 10° SSE 19:08:43 73° ENE 19:11:48 10° N
EO 1 Del DPAF 4.1 19:09:48 10° N 19:13:33 52° WNW 19:17:16 10° SSW
Thor Agena Rocket 3.9 19:08:52 10° NNE 19:13:34 38° E 19:18:13 10° SSE
IUS-17 SRM-1 4.4 19:11:53 10° WSW 19:13:45 15° SSW 19:15:08 10° SSE
METEOR-M 4.1 19:08:54 10° SSE 19:14:15 88° ENE 19:19:37 10° NNW
COSMO-SKYMED 1 2.9 19:10:56 10° N 19:15:15 69° WNW 19:19:33 10° SSW
Cosmos 2219 Rocket 2.2 19:14:14 10° NNW 19:19:44 55° ENE 19:25:14 10° SE
CZ-4 R/B 3.5 19:16:09 10° SSW 19:19:55 32° W 19:23:38 10° NW
Cosmos 1805 Rocket 3.4 19:20:31 10° N 19:24:56 81° E 19:29:22 10° S
BREEZE-M DEB (TANK) 4.5 19:17:10 10° WNW 19:27:01 32° NNW 19:29:58 17° NE
CZ-4C R/B 3.3 19:22:31 10° WSW 19:27:21 40° NW 19:32:48 10° NNE
Aureole 2 Rocket 2.7 19:26:47 10° NNW 19:30:48 88° ENE 19:34:54 10° SSE
Cosmos 1535 Rocket 4.4 19:25:04 10° S 19:31:11 88° W 19:37:19 10° N
Cosmos 2228 Rocket 3.7 19:28:05 10° SSE 19:32:10 34° E 19:34:24 22° NE
YAOGAN 1 4.3 19:28:39 10° SSW 19:32:35 35° W 19:36:34 10° NNW
Cosmos 1328 Rocket 3.8 19:29:45 10° SSE 19:33:55 44° E 19:38:05 10° NNE
Cosmos 1666 Rocket 3.4 19:30:14 10° N 19:34:32 63° E 19:38:48 10° SSE
Meteor 2-2 Rocket 4.2 19:30:05 10° S 19:35:40 60° E 19:41:13 10° NNE
Iridium 4 Rocket 4.2 19:32:09 10° SSW 19:37:41 64° W 19:43:33 10° N
BREEZE-M R/B 2.8 19:35:42 10° WSW 19:38:09 48° NNW 19:39:11 33° NNE
Cosmos 1633 Rocket 3.1 19:33:55 10° N 19:38:17 57° E 19:42:37 10° SSE
PSLV R/B 4.1 19:44:17 10° W 19:47:12 35° NNW 19:47:13 35° NNW
Cosmos 494 Rocket 4.0 19:42:21 10° SSW 19:47:27 81° WNW 19:52:36 10° NNE
Cosmos 2084 3.0 19:46:02 10° NNW 19:49:52 79° ENE 19:50:20 65° ESE
H-2A R/B 2.7 19:55:28 65° NNE 19:55:28 65° NNE 19:59:00 10° N
In-Cosmos 22 Rocket 4.1 19:49:59 10° N 19:55:48 80° E 20:01:38 10° S
Delta 2 Rocket 3.8 19:53:01 10° W 19:56:42 42° SSW 19:56:55 41° S
Cosmos 1934 Rocket 4.4 19:50:42 10° SSW 19:57:00 65° W 20:03:21 10° N
Cosmos 2237 Rocket 2.1 19:52:59 10° NNW 19:58:39 63° ENE 20:00:18 44° SE
Cosmos 2227 Rocket 2.3 19:56:28 10° SSW 20:02:05 73° WNW 20:07:47 10° NNE
MOS 1-B Rocket 4.2 20:03:12 45° ENE 20:03:12 45° ENE 20:08:45 10° N
Cosmos 1110 Rocket 4.0 19:57:47 10° NNW 20:03:06 84° WSW 20:07:00 18° SSE
SL-16 R/B 3.5 20:07:05 10° N 20:09:56 24° NNE 20:09:56 24° NNE
USA 32 3.9 20:08:48 10° N 20:13:52 74° ENE 20:13:52 74° ENE
ALOS 4.0 20:11:56 10° SSW 20:16:07 32° W 20:20:19 10° NNW
Cosmos 1980 3.8 20:17:42 10° NNW 20:23:21 73° WSW 20:24:57 47° S
Atlas Centaur 2 4.3 20:22:21 10° SW 20:24:10 12° SSW 20:25:37 11° S
Gbstr 26 Del rocket 4.4 20:18:58 10° WNW 20:24:13 52° SW 20:26:24 36° S
Meteor 2-3 Rocket 4.0 20:31:04 10° N 20:35:42 59° NNW 20:35:42 59° NNW
Hubble Space Telescope 3.1 20:34:20 10° WSW 20:35:51 19° SW 20:35:51 19° SW
Cosmos 2333 Rocket 3.6 20:33:05 10° NW 20:38:16 36° WSW 20:43:25 10° SSW
Cosmos 2297 Rocket 3.3 20:33:55 10° SW 20:39:15 42° WNW 20:42:52 19° N
Cosmos 967 Rocket 4.5 20:34:52 10° NNW 20:41:03 82° NW 20:41:03 82° NW
BREEZE-M DEB (TANK) 3.8 20:32:28 10° NW 20:42:21 56° NNW 20:42:21 56° NNW
USA 267 3.4 20:52:07 61° SSW 20:52:07 61° SSW 20:57:23 10° SW
Centaur D AC-29 3.9 21:07:37 10° WSW 21:08:57 14° SW 21:08:57 14° SW
